Flag for Kazakhstan Weather past 2 weeks in Astana, Kazakhstan

57 °F

Mostly cloudy.

Feels Like: 54 °F
Forecast: 23 / 47 °F
Wind: 15 mph from West

Location: Astana

Current Time: Oct 9, 2015 at 12:59:57 PM

Latest Report: Oct 9, 2015 at 12:30 PM

Visibility: N/A

Pressure: 29.74 "Hg

Humidity: 72%

Dew point: 48 °F

Location of AstanaLocation

Historic Weather in Astana — Graph


Astana temperature yesterday

Maximum temperature yesterday: 75 °F (at 4:30 PM)
Minimum temperature yesterday: 30 °F (at 2:00 AM)
Average temperature yesterday: 53 °F

Past Weeks' High & Low Weather Summary

High75 °F (Oct 8, 4:30 PM)100% (Sep 25, 7:30 AM)30.63 "Hg (Sep 25, 7:30 AM)
Low21 °F (Sep 28, 6:00 AM)11% (Oct 8, 3:30 PM)29.18 "Hg (Oct 4, 4:30 AM)
Average46 °F52%30.10 "Hg
* Reported Sep 24 12:00 Noon — Oct 9 12:00 Noon, Astana, Weather by CustomWeather, © 2015

Note: Actual official high and low records may vary slightly from our data, if they occured in-between our weather recording intervals... More about our weather records


Astana weather history for previous 24 hours

Time TempWeatherWind HumidityBarometerVisibility
12:00 PM
Fri, Oct 9
59 °FMore clouds than sun.13 mph72%29.71 "HgN/A
11:30 AM57 °FSprinkles. More clouds than sun.13 mph77%29.71 "HgN/A
11:00 AM61 °FSprinkles. More clouds than sun.15 mph63%29.71 "HgN/A
10:30 AM61 °FSprinkles. Overcast.13 mph63%29.68 "HgN/A
10:00 AM61 °FSunny.10 mph63%29.65 "Hg10 mi
9:30 AM63 °FSunny.13 mph59%29.65 "Hg10 mi
9:00 AM63 °FSunny.13 mph56%29.62 "Hg10 mi
8:30 AM64 °FPartly sunny.10 mph46%29.59 "HgN/A
8:00 AM64 °FPassing clouds.13 mph49%29.59 "HgN/A
7:30 AM66 °FMostly cloudy.15 mph40%29.59 "HgN/A
7:00 AM66 °FPassing clouds.10 mph35%29.59 "HgN/A
6:30 AM68 °FPassing clouds.15 mph33%29.56 "HgN/A
6:00 AM68 °FPassing clouds.15 mph33%29.56 "HgN/A
5:30 AM68 °FPassing clouds.13 mph33%29.56 "HgN/A
5:00 AM68 °FPassing clouds.15 mph33%29.56 "HgN/A
4:30 AM70 °FPassing clouds.17 mph31%29.56 "HgN/A
4:00 AM70 °FPassing clouds.15 mph29%29.56 "HgN/A
3:30 AM66 °FPassing clouds.17 mph35%29.56 "HgN/A
3:00 AM64 °FPassing clouds.15 mph37%29.56 "HgN/A
2:30 AM64 °FPassing clouds.17 mph37%29.56 "HgN/A
2:00 AM63 °FPassing clouds.13 mph39%29.59 "HgN/A
1:30 AM63 °FClear.15 mph37%29.62 "Hg10 mi
1:00 AM64 °FClear.13 mph32%29.62 "Hg10 mi
12:30 AM59 °FPassing clouds.13 mph39%29.65 "HgN/A
12:00 AM55 °FClear.10 mph44%29.68 "Hg10 mi
11:30 PM
Thu, Oct 8
57 °FClear.13 mph41%29.68 "Hg10 mi
11:00 PM55 °FClear.8 mph41%29.68 "Hg10 mi
10:30 PM55 °FClear.8 mph44%29.71 "Hg10 mi
10:00 PM54 °FClear.8 mph47%29.71 "Hg10 mi
9:30 PM55 °FClear.8 mph44%29.71 "Hg10 mi
9:00 PM54 °FClear.8 mph44%29.74 "Hg10 mi
8:30 PM54 °FClear.6 mph47%29.74 "Hg10 mi
8:00 PM55 °FClear.8 mph44%29.77 "Hg10 mi
7:30 PM57 °FSunny.8 mph39%29.77 "Hg10 mi
7:00 PM55 °FSunny.8 mph47%29.77 "Hg10 mi
6:30 PM59 °FSunny.6 mph39%29.77 "Hg10 mi
6:00 PM70 °FSunny.6 mph18%29.77 "Hg10 mi
5:30 PM72 °FSunny.10 mph15%29.80 "Hg10 mi
5:00 PM73 °FSunny.13 mph14%29.80 "Hg10 mi
4:30 PM75 °FSunny.13 mph12%29.80 "Hg10 mi
4:00 PM73 °FSunny.13 mph11%29.80 "Hg10 mi
3:30 PM73 °FSunny.13 mph11%29.80 "Hg10 mi
3:00 PM72 °FSunny.13 mph12%29.80 "Hg10 mi
2:30 PM72 °FSunny.13 mph13%29.83 "Hg10 mi
2:00 PM72 °FSunny.13 mph12%29.83 "Hg10 mi
1:30 PM70 °FSunny.15 mph13%29.83 "Hg10 mi
1:00 PM68 °FSunny.15 mph16%29.83 "Hg10 mi
12:30 PM66 °FSunny.13 mph18%29.83 "Hg10 mi
12:00 PM63 °FSunny.8 mph30%29.83 "Hg10 mi
Weather by CustomWeather, © 2015

See weather overviewHow to use our weather pages